Simultaneous Nadir Overpasses (SNOs) Predictions

Prediction of SNOs between METOP-B and NOAA-19 Satellite Orbit:

Table of predicted SNOs for the next 14.0 days since TLE Epoch: 8/28/2020
Index Date (METOP-B) Time (METOP-B) Lat,Lon (METOP-B) SZA (METOP-B ) Date (NOAA-19) Time (NOAA-19) Lat,Lon (NOAA-19) SZA (NOAA-19 ) Distance(km) Time Diff (sec)
1 09/07/2020 00:56:54 -80.19, 9.78 104.91 09/07/2020 00:55:42 -80.17, 9.65 104.96 3.26 72
2 09/07/2020 01:47:35 80.18, 176.95 75.08 09/07/2020 01:46:47 80.17, 176.90 75.06 1.34 48
3 09/07/2020 02:38:16 -80.18, -15.70 104.91 09/07/2020 02:37:42 -80.16, -15.68 104.93 2.10 34
4 09/07/2020 03:28:57 80.16, 151.47 75.09 09/07/2020 03:28:47 80.16, 151.57 75.09 1.91 10
5 09/07/2020 04:19:38 -80.16, -41.18 104.90 09/07/2020 04:19:43 -80.17, -41.33 104.91 2.89 5
6 09/07/2020 05:10:19 80.15, 125.99 75.09 09/07/2020 05:10:48 80.17, 125.92 75.11 2.43 29
7 09/07/2020 06:01:00 -80.15, -66.66 104.90 09/07/2020 06:01:43 -80.16, -66.66 104.88 0.71 43
8 09/07/2020 06:51:41 80.14, 100.51 75.10 09/07/2020 06:52:48 80.16, 100.59 75.14 2.62 67
